Phoenix, AZ

7:01 AM MST on September 25, 2016 (GMT -0700)
Phoenix-Deer Valley Municipal

Weather History for KDVT - November, 2012

Change the Weather History Date:

Monday, November 26, 2012

  Actual Average Record
Temperature  
Mean Temperature 63 °F -  
Max Temperature 75 °F 66 °F 80 °F (1998)
Min Temperature 51 °F 45 °F 37 °F (2010)
Degree Days  
Heating Degree Days 2    
Growing Degree Days 13 (Base 50)    
Moisture  
Dew Point 32 °F    
Average Humidity 32    
Maximum Humidity 46    
Minimum Humidity 21    
Precipitation  
Precipitation 0.00 in - - ()
Sea Level Pressure  
Sea Level Pressure 29.97 in    
Wind  
Wind Speed 1 mph (SSE)    
Max Wind Speed 9 mph    
Max Gust Speed -    
Visibility 10 miles    
Events      
Averages and records for this station are not official NWS values.
T = Trace of Precipitation, MM = Missing Value Source: NWS Daily Summary

Daily Weather History Graph

Daily Weather History Graph

Search for Another Location

Airport or City:

Trip Planner

Search our weather history database for the weather conditions in past years. The results will help you decide how hot, cold, wet, or windy it might be!

Date:

Astronomy

Nov. 26, 2012 Rise Set
Actual Time 7:10 AM MST 5:20 PM MST
Civil Twilight 6:43 AM MST 5:47 PM MST
Nautical Twilight 6:13 AM MST 6:18 PM MST
Astronomical Twilight 5:43 AM MST 6:48 PM MST
Moon 4:12 PM MST (11/26) 5:27 AM MST (11/26)
Length of Visible Light 11h 03m
Length of Day
10h 09m
Waxing Gibbous, 97% of the Moon is Illuminated
Nov 26
Waxing Gibbous
Nov 28
Full
Dec 6
Last Quarter
Dec 13
New
Dec 19
First Quarter

Hourly Weather History & Observations

Time (MST) Temp. Dew Point Humidity Pressure Visibility Wind Dir Wind Speed Gust Speed Precip Events Conditions
12:53 AM 57.0 °F 30.9 °F 37% 29.88 in 10.0 mi Calm Calm - N/A   Clear
1:53 AM 57.9 °F 30.9 °F 36% 29.88 in 10.0 mi NE 3.5 mph - N/A   Clear
2:53 AM 54.0 °F 30.9 °F 41% 29.89 in 10.0 mi Calm Calm - N/A   Clear
3:53 AM 57.0 °F 32.0 °F 39% 29.89 in 10.0 mi Calm Calm - N/A   Clear
4:53 AM 54.0 °F 30.9 °F 41% 29.90 in 10.0 mi Calm Calm - N/A   Clear
5:53 AM 53.1 °F 30.9 °F 43% 29.93 in 10.0 mi Calm Calm - N/A   Clear
6:53 AM 51.1 °F 30.9 °F 46% 29.96 in 10.0 mi Calm Calm - N/A   Clear
7:53 AM 54.0 °F 30.9 °F 41% 29.99 in 10.0 mi Calm Calm - N/A   Clear
8:53 AM 61.0 °F 32.0 °F 34% 30.01 in 10.0 mi Calm Calm - N/A   Clear
9:53 AM 66.9 °F 32.0 °F 27% 30.01 in 10.0 mi Calm Calm - N/A   Clear
10:53 AM 68.0 °F 34.0 °F 28% 30.01 in 10.0 mi South 4.6 mph - N/A   Clear
11:53 AM 71.1 °F 33.1 °F 25% 29.99 in 10.0 mi Variable 3.5 mph - N/A   Clear
12:53 PM 73.9 °F 34.0 °F 23% 29.98 in 10.0 mi South 6.9 mph - N/A   Clear
1:53 PM 75.0 °F 33.1 °F 22% 29.96 in 10.0 mi Calm Calm - N/A   Clear
2:53 PM 75.9 °F 34.0 °F 22% 29.95 in 10.0 mi South 5.8 mph - N/A   Clear
3:53 PM 75.9 °F 33.1 °F 21% 29.94 in 10.0 mi South 4.6 mph - N/A   Clear
4:53 PM 75.0 °F 33.1 °F 22% 29.95 in 10.0 mi SW 4.6 mph - N/A   Clear
5:53 PM 71.1 °F 33.1 °F 25% 29.97 in 10.0 mi Calm Calm - N/A   Clear
6:53 PM 66.9 °F 33.1 °F 28% 29.99 in 10.0 mi Calm Calm - N/A   Clear
7:53 PM 62.1 °F 32.0 °F 32% 30.01 in 10.0 mi Calm Calm - N/A   Clear
8:53 PM 64.0 °F 33.1 °F 31% 30.02 in 10.0 mi Calm Calm - N/A   Clear
9:53 PM 63.0 °F 32.0 °F 31% 30.03 in 10.0 mi NNE 9.2 mph - N/A   Clear
10:53 PM 61.0 °F 30.9 °F 32% 30.05 in 10.0 mi Calm Calm - N/A   Clear
11:53 PM 57.0 °F 30.0 °F 36% 30.06 in 10.0 mi Calm Calm - N/A   Clear